When you browse on this site, cookies collect data to enhance your experience and personalize the content and advertising you see.
Visit our Privacy Policy to learn more. By continuing to use the site, you agree to this use of cookies and data.
  • In Hungary
  • List of Countries
  • For 7 days
  • Water Temperature
  • Satellite Maps
  • Weather Map
  • News
  • Weather Widgets
  • user-avatar
    Login

    Hourly Weather Medina

    Today, 10 December, Monday

    Time Temperature Precipitation Wind Pressure Humidity
    00:00 +21°C° 0 mm 1 mps 692 mmHg 65%
    01:00 +20°C° 0 mm 1 mps 692 mmHg 68%
    02:00 +20°C° 0 mm 1 mps 691 mmHg 70%
    03:00 +18°C° 0 mm 2 mps 691 mmHg 72%
    04:00 +19°C° 0 mm 1 mps 691 mmHg 74%
    05:00 +18°C° 0 mm 1 mps 691 mmHg 76%
    06:00 +18°C° 0 mm 1 mps 691 mmHg 78%
    07:00 +17°C° 0 mm 2 mps 691 mmHg 72%
    08:00 +18°C° 0 mm 2 mps 692 mmHg 67%
    09:00 +19°C° 0 mm 2 mps 692 mmHg 62%
    10:00 +20°C° 0 mm 2 mps 692 mmHg 52%
    11:00 +21°C° 0 mm 2 mps 692 mmHg 42%
    12:00 +24°C° 0 mm 2 mps 692 mmHg 33%
    13:00 +24°C° 0 mm 3 mps 692 mmHg 29%
    14:00 +25°C° 0 mm 3 mps 692 mmHg 26%
    15:00 +25°C° 0 mm 3 mps 692 mmHg 22%
    16:00 +25°C° 0 mm 3 mps 692 mmHg 23%
    17:00 +24°C° 0 mm 3 mps 692 mmHg 24%
    18:00 +23°C° 0 mm 2 mps 692 mmHg 26%
    19:00 +23°C° 0 mm 2 mps 692 mmHg 27%
    20:00 +21°C° 0 mm 2 mps 692 mmHg 29%
    21:00 +21°C° 0 mm 1 mps 693 mmHg 31%
    22:00 +20°C° 0 mm 1 mps 693 mmHg 32%
    23:00 +20°C° 0 mm 1 mps 693 mmHg 33%

    Tomorrow, 11 December, Tuesday

    Time Temperature Precipitation Wind Pressure Humidity
    00:00 +19°C° 0 mm 1 mps 693 mmHg 34%
    01:00 +19°C° 0 mm 1 mps 692 mmHg 34%
    02:00 +18°C° 0 mm 1 mps 692 mmHg 34%
    03:00 +18°C° 0 mm 1 mps 692 mmHg 35%
    04:00 +16°C° 0 mm 1 mps 692 mmHg 35%
    05:00 +16°C° 0 mm 1 mps 692 mmHg 35%
    06:00 +16°C° 0 mm 1 mps 692 mmHg 36%
    07:00 +18°C° 0 mm 1 mps 692 mmHg 35%
    08:00 +18°C° 0 mm 2 mps 693 mmHg 33%
    09:00 +19°C° 0 mm 2 mps 694 mmHg 32%
    10:00 +20°C° 0 mm 2 mps 694 mmHg 31%
    11:00 +23°C° 0 mm 2 mps 694 mmHg 30%
    12:00 +24°C° 0 mm 3 mps 694 mmHg 29%
    13:00 +25°C° 0 mm 2 mps 693 mmHg 26%
    14:00 +25°C° 0 mm 2 mps 693 mmHg 23%
    15:00 +26°C° 0 mm 1 mps 693 mmHg 21%
    16:00 +25°C° 0 mm 1 mps 693 mmHg 22%
    17:00 +25°C° 0 mm 1 mps 693 mmHg 23%
    18:00 +24°C° 0 mm 1 mps 693 mmHg 23%
    19:00 +24°C° 0 mm 1 mps 693 mmHg 25%
    20:00 +23°C° 0 mm 1 mps 693 mmHg 27%
    21:00 +21°C° 0 mm 2 mps 693 mmHg 28%
    22:00 +21°C° 0 mm 2 mps 693 mmHg 30%
    23:00 +20°C° 0 mm 2 mps 693 mmHg 32%

    Day after tomorrow, 12 December, Wednesday

    Time Temperature Precipitation Wind Pressure Humidity
    00:00 +20°C° 0 mm 2 mps 693 mmHg 34%
    01:00 +19°C° 0 mm 2 mps 693 mmHg 35%
    02:00 +19°C° 0 mm 2 mps 693 mmHg 37%
    03:00 +18°C° 0 mm 2 mps 692 mmHg 39%
    04:00 +19°C° 0 mm 1 mps 692 mmHg 41%
    05:00 +18°C° 0 mm 1 mps 692 mmHg 43%
    06:00 +18°C° 0 mm 1 mps 692 mmHg 45%
    07:00 +18°C° 0 mm 2 mps 693 mmHg 43%
    08:00 +19°C° 0 mm 2 mps 693 mmHg 41%
    09:00 +20°C° 0 mm 2 mps 694 mmHg 39%
    10:00 +23°C° 0 mm 2 mps 694 mmHg 37%
    11:00 +24°C° 0 mm 2 mps 694 mmHg 35%
    12:00 +26°C° 0 mm 2 mps 694 mmHg 32%
    13:00 +26°C° 0 mm 2 mps 693 mmHg 31%
    14:00 +27°C° 0 mm 2 mps 693 mmHg 29%
    15:00 +28°C° 0 mm 2 mps 692 mmHg 27%
    16:00 +27°C° 0 mm 2 mps 692 mmHg 28%
    17:00 +27°C° 0 mm 2 mps 692 mmHg 29%
    18:00 +26°C° 0 mm 2 mps 692 mmHg 30%
    19:00 +26°C° 0 mm 2 mps 692 mmHg 31%
    20:00 +25°C° 0 mm 1 mps 693 mmHg 33%
    21:00 +24°C° 0 mm 1 mps 693 mmHg 35%
    22:00 +23°C° 0 mm 1 mps 693 mmHg 36%
    23:00 +23°C° 0 mm 1 mps 693 mmHg 37%

    13 December, Thursday

    Time Temperature Precipitation Wind Pressure Humidity
    00:00 +22°C° 0 mm 1 mps 693 mmHg 38%
    01:00 +22°C° 0 mm 1 mps 692 mmHg 39%
    02:00 +21°C° 0 mm 1 mps 692 mmHg 40%
    03:00 +21°C° 0 mm 1 mps 692 mmHg 41%
    04:00 +20°C° 0 mm 1 mps 692 mmHg 43%
    05:00 +18°C° 0 mm 0 mps 692 mmHg 45%
    06:00 +18°C° 0 mm 0 mps 692 mmHg 47%
    07:00 +19°C° 0 mm 0 mps 693 mmHg 44%
    08:00 +20°C° 0 mm 0 mps 693 mmHg 41%
    09:00 +22°C° 0 mm 0 mps 694 mmHg 38%
    10:00 +25°C° 0 mm 1 mps 694 mmHg 38%
    11:00 +25°C° 0 mm 1 mps 694 mmHg 38%
    12:00 +26°C° 0 mm 1 mps 694 mmHg 39%
    13:00 +27°C° 0 mm 2 mps 693 mmHg 38%
    14:00 +27°C° 0 mm 2 mps 693 mmHg 36%
    15:00 +28°C° 0 mm 3 mps 692 mmHg 35%
    16:00 +27°C° 0 mm 3 mps 693 mmHg 37%
    17:00 +27°C° 0 mm 3 mps 693 mmHg 39%
    18:00 +26°C° 0 mm 3 mps 693 mmHg 41%
    19:00 +25°C° 0 mm 2 mps 693 mmHg 44%
    20:00 +25°C° 0 mm 2 mps 693 mmHg 47%
    21:00 +24°C° 0 mm 2 mps 694 mmHg 49%
    22:00 +24°C° 0 mm 2 mps 693 mmHg 51%
    23:00 +23°C° 0 mm 1 mps 693 mmHg 53%

    14 December, Friday

    Time Temperature Precipitation Wind Pressure Humidity
    00:00 +22°C° 0 mm 1 mps 693 mmHg 55%
    01:00 +22°C° 0 mm 1 mps 693 mmHg 56%
    02:00 +21°C° 0 mm 1 mps 693 mmHg 57%
    03:00 +21°C° 0 mm 1 mps 692 mmHg 58%
    04:00 +21°C° 0 mm 1 mps 692 mmHg 59%
    05:00 +20°C° 0 mm 1 mps 692 mmHg 59%
    06:00 +20°C° 0 mm 1 mps 692 mmHg 59%
    07:00 +21°C° 0 mm 1 mps 693 mmHg 55%
    08:00 +22°C° 0 mm 1 mps 694 mmHg 50%
    09:00 +23°C° 0 mm 1 mps 694 mmHg 45%
    10:00 +24°C° 0 mm 1 mps 694 mmHg 43%
    11:00 +25°C° 0 mm 1 mps 694 mmHg 41%
    12:00 +26°C° 0 mm 1 mps 694 mmHg 40%
    13:00 +26°C° 0 mm 1 mps 693 mmHg 39%
    14:00 +27°C° 0 mm 1 mps 693 mmHg 38%
    15:00 +27°C° 0 mm 1 mps 692 mmHg 37%
    16:00 +27°C° 0 mm 1 mps 693 mmHg 38%
    17:00 +27°C° 0 mm 1 mps 693 mmHg 38%
    18:00 +27°C° 0 mm 1 mps 693 mmHg 39%
    19:00 +26°C° 0 mm 1 mps 693 mmHg 41%
    20:00 +25°C° 0 mm 1 mps 693 mmHg 43%
    21:00 +25°C° 0 mm 1 mps 693 mmHg 45%
    22:00 +24°C° 0 mm 1 mps 693 mmHg 47%
    23:00 +24°C° 0 mm 1 mps 693 mmHg 48%

    15 December, Saturday

    Time Temperature Precipitation Wind Pressure Humidity
    00:00 +21°C° 0 mm 0 mps 693 mmHg 50%
    01:00 +23°C° 0 mm 1 mps 692 mmHg 52%
    02:00 +22°C° 0 mm 1 mps 692 mmHg 53%
    03:00 +22°C° 0 mm 1 mps 692 mmHg 54%
    04:00 +22°C° 0 mm 1 mps 692 mmHg 55%
    05:00 +21°C° 0 mm 1 mps 692 mmHg 56%
    06:00 +20°C° 0 mm 2 mps 692 mmHg 57%
    07:00 +20°C° 0 mm 2 mps 692 mmHg 54%
    08:00 +21°C° 0 mm 2 mps 693 mmHg 51%
    09:00 +23°C° 0 mm 2 mps 693 mmHg 49%
    10:00 +24°C° 0 mm 2 mps 693 mmHg 47%
    11:00 +24°C° 0 mm 2 mps 693 mmHg 46%
    12:00 +25°C° 0 mm 2 mps 692 mmHg 44%
    13:00 +26°C° 0.1 mm 2 mps 692 mmHg 44%
    14:00 +27°C° 0.1 mm 3 mps 692 mmHg 44%
    15:00 +27°C° 0.1 mm 3 mps 691 mmHg 43%
    16:00 +27°C° 0.1 mm 3 mps 691 mmHg 46%
    17:00 +26°C° 0.1 mm 3 mps 691 mmHg 49%
    18:00 +25°C° 0.1 mm 3 mps 692 mmHg 52%
    19:00 +25°C° 0 mm 3 mps 692 mmHg 55%
    20:00 +24°C° 0 mm 2 mps 692 mmHg 59%
    21:00 +24°C° 0 mm 2 mps 692 mmHg 62%
    22:00 +23°C° 0 mm 2 mps 692 mmHg 65%
    23:00 +23°C° 0 mm 2 mps 692 mmHg 68%
    Show more